Weather History for New Philadelphia, OH

Change the Weather History Date:

Saturday, February 11, 2012

  Actual Average Record
Temperature  
Mean Temperature 22 °F 31 °F  
Max Temperature 30 °F 40 °F 63 °F (1965)
Min Temperature 14 °F 22 °F -12 °F (1979)
Degree Days  
Heating Degree Days 43 34  
Month to date heating degree days 354 382  
Since 1 July heating degree days 1644 3654  
Cooling Degree Days 0 0  
Month to date cooling degree days 0 0  
Year to date cooling degree days 0 0  
Moisture  
Dew Point 16 °F    
Average Humidity 73    
Maximum Humidity 92    
Minimum Humidity 53    
Precipitation  
Precipitation 0.05 in 0.09 in 0.51 in (1981)
Month to date precipitation 0.46 0.90  
Year to date precipitation 3.09 3.50  
Sea Level Pressure  
Sea Level Pressure 29.94 in    
Wind  
Wind Speed 12 mph (NW)    
Max Wind Speed 22 mph    
Max Gust Speed 33 mph    
Visibility 5 miles    
Events Snow    
T = Trace of Precipitation, MM = Missing Value Source: NWS Daily Summary

Daily Weather History Graph

Daily Weather History Graph

Search for Another Location

Airport:

Trip Planner

Search our weather history database for the weather conditions in past years. The results will help you decide how hot, cold, wet, or windy it might be!

Date:

Astronomy

Feb. 11, 2012 Rise Set
Actual Time 7:24 AM EST 5:55 PM EST
Civil Twilight 6:56 AM EST 6:23 PM EST
Nautical Twilight 6:24 AM EST 6:55 PM EST
Astronomical Twilight 5:52 AM EST 7:27 PM EST
Moon 10:43 PM EST (2/11) 9:05 AM EST (2/11)
Length of Visible Light 11h 27m
Length of Day
10h 30m
Waning Gibbous, 82% of the Moon is Illuminated
Feb 11
Waning Gibbous
Feb 14
Last Quarter
Feb 21
New
Feb 29
First Quarter
Mar 8
Full

Hourly Weather History & Observations

Time (EST) Temp. Windchill Dew Point Humidity Pressure Visibility Wind Dir Wind Speed Gust Speed Precip Events Conditions
12:39 AM 28.4 °F 24.6 °F 24.8 °F 86% 29.86 in 8.0 mi South 3.5 mph - 0.00 in   Overcast
12:53 AM 28.9 °F 25.2 °F 24.1 °F 82% 29.89 in 8.0 mi SW 3.5 mph - 0.00 in   Overcast
1:03 AM 28.4 °F 24.6 °F 24.8 °F 86% 29.85 in 8.0 mi SSW 3.5 mph - N/A   Overcast
1:53 AM 28.9 °F 25.2 °F 25.0 °F 85% 29.87 in 3.0 mi South 3.5 mph - 0.00 in Snow Light Snow
2:17 AM 28.4 °F 24.6 °F 24.8 °F 86% 29.83 in 2.5 mi South 3.5 mph - 0.00 in Snow Light Snow
2:35 AM 28.4 °F - 24.8 °F 86% 29.82 in 1.5 mi Calm Calm - 0.00 in Snow Light Snow
2:53 AM 28.9 °F 25.2 °F 25.0 °F 85% 29.84 in 1.5 mi SSE 3.5 mph - 0.01 in Snow Light Snow
3:05 AM 28.4 °F 24.6 °F 26.6 °F 93% 29.80 in 2.0 mi South 3.5 mph - 0.00 in Snow Light Snow
3:46 AM 28.4 °F - 26.6 °F 93% 29.78 in 1.5 mi Calm Calm - 0.00 in Snow Light Snow
3:53 AM 28.9 °F - 26.1 °F 89% 29.81 in 1.2 mi Calm Calm - 0.00 in Snow Light Snow
3:59 AM 28.4 °F 24.6 °F 26.6 °F 93% 29.78 in 1.0 mi South 3.5 mph - 0.00 in Snow Light Snow
4:27 AM 28.4 °F 24.6 °F 26.6 °F 93% 29.77 in 1.2 mi Variable 3.5 mph - 0.01 in Snow Light Snow
4:40 AM 28.4 °F 24.6 °F 26.6 °F 93% 29.76 in 1.0 mi South 3.5 mph - 0.02 in Snow Light Snow
4:48 AM 28.4 °F - 26.6 °F 93% 29.77 in 1.2 mi Calm Calm - 0.02 in Snow Light Snow
4:53 AM 28.9 °F 23.9 °F 26.1 °F 89% 29.79 in 1.2 mi South 4.6 mph - 0.02 in Snow Light Snow
5:13 AM 30.2 °F 26.7 °F 26.6 °F 86% 29.76 in 1.2 mi SW 3.5 mph - 0.01 in Snow Light Snow
5:24 AM 30.2 °F 25.4 °F 26.6 °F 86% 29.76 in 1.2 mi WSW 4.6 mph - 0.01 in Snow Light Snow
5:31 AM 30.2 °F 25.4 °F 26.6 °F 86% 29.76 in 1.2 mi WSW 4.6 mph - 0.01 in Snow Light Snow
5:35 AM 30.2 °F - 26.6 °F 86% 29.76 in 1.0 mi Calm Calm - 0.01 in Snow Light Snow
5:53 AM 30.0 °F 25.2 °F 26.1 °F 85% 29.79 in 1.2 mi West 4.6 mph - 0.02 in Snow Light Snow
6:03 AM 28.4 °F 17.5 °F 24.8 °F 86% 29.78 in 1.2 mi NW 13.8 mph 23.0 mph 0.00 in Snow Light Snow
6:16 AM 26.6 °F 14.3 °F 19.4 °F 74% 29.79 in 1.5 mi NNW 16.1 mph 32.2 mph 0.00 in Snow Light Snow
6:24 AM 24.8 °F 10.7 °F 19.4 °F 80% 29.80 in 1.5 mi NNW 19.6 mph 32.2 mph 0.00 in Snow Light Snow
6:39 AM 24.8 °F 14.6 °F 17.6 °F 74% 29.81 in 2.5 mi NNW 10.4 mph 19.6 mph 0.00 in Snow Light Snow
6:53 AM 24.1 °F 12.5 °F 18.0 °F 77% 29.86 in 2.5 mi NNW 12.7 mph 21.9 mph 0.00 in Snow Light Snow
7:38 AM 23.0 °F 10.6 °F 15.8 °F 74% 29.85 in 4.0 mi NNW 13.8 mph 28.8 mph 0.00 in Snow Light Snow
7:53 AM 23.0 °F 12.4 °F 15.1 °F 72% 29.90 in 4.0 mi NNW 10.4 mph 26.5 mph 0.00 in Snow Light Snow
8:36 AM 21.2 °F 8.3 °F 12.2 °F 68% 29.90 in 2.5 mi NNW 13.8 mph 24.2 mph 0.00 in Snow Light Snow
8:53 AM 19.9 °F 6.2 °F 12.0 °F 71% 29.95 in 2.5 mi NNW 15.0 mph 25.3 mph 0.00 in Snow Light Snow
9:02 AM 19.4 °F 5.5 °F 12.2 °F 74% 29.91 in 5.0 mi NNW 15.0 mph 27.6 mph 0.00 in Snow Light Snow
9:53 AM 19.9 °F 3.5 °F 10.9 °F 68% 29.98 in 7.0 mi NNW 21.9 mph 28.8 mph 0.00 in Snow Light Snow
10:53 AM 19.0 °F 5.6 °F 10.0 °F 68% 30.02 in 4.0 mi NW 13.8 mph 20.7 mph 0.00 in Snow Light Snow
11:53 AM 19.9 °F 6.2 °F 10.0 °F 65% 30.02 in 7.0 mi NW 15.0 mph 23.0 mph 0.00 in Snow Light Snow
12:53 PM 19.9 °F 4.8 °F 9.0 °F 62% 30.02 in 4.0 mi NNW 18.4 mph 27.6 mph 0.00 in Snow Light Snow
1:50 PM 19.4 °F 3.2 °F 8.6 °F 63% 29.99 in 7.0 mi NNW 20.7 mph 31.1 mph 0.00 in   Overcast
1:53 PM 19.9 °F 3.2 °F 8.1 °F 60% 30.03 in 6.0 mi NNW 23.0 mph 38.0 mph 0.00 in   Haze
2:53 PM 19.0 °F 3.6 °F 8.1 °F 62% 30.06 in 9.0 mi NW 18.4 mph 28.8 mph 0.00 in   Overcast
3:27 PM 19.4 °F 5.0 °F 8.6 °F 63% 30.04 in 10.0 mi NNW 16.1 mph 26.5 mph N/A   Overcast
3:53 PM 19.0 °F 2.4 °F 8.1 °F 62% 30.09 in 6.0 mi NNW 21.9 mph 29.9 mph N/A   Haze
4:32 PM 19.4 °F 3.6 °F 6.8 °F 58% 30.07 in 8.0 mi NNW 19.6 mph 31.1 mph N/A   Overcast
4:53 PM 18.0 °F 3.1 °F 7.0 °F 62% 30.12 in 10.0 mi NNW 16.1 mph 32.2 mph N/A   Overcast
5:45 PM 15.8 °F 0.3 °F 6.8 °F 68% 30.11 in 10.0 mi NW 16.1 mph 27.6 mph 0.00 in   Overcast
5:53 PM 16.0 °F 2.3 °F 6.1 °F 65% 30.16 in 10.0 mi NNW 12.7 mph 25.3 mph 0.00 in   Overcast
6:18 PM 15.8 °F 3.4 °F 5.0 °F 62% 30.14 in 10.0 mi NW 10.4 mph 20.7 mph N/A   Overcast
6:33 PM 15.8 °F 0.9 °F 3.2 °F 58% 30.15 in 10.0 mi NW 15.0 mph 25.3 mph N/A   Overcast
6:53 PM 14.0 °F -0.2 °F 3.9 °F 64% 30.20 in 10.0 mi NNW 12.7 mph 19.6 mph N/A   Overcast
7:53 PM 15.1 °F 0.5 °F 3.0 °F 59% 30.22 in 10.0 mi NW 13.8 mph 19.6 mph N/A   Overcast
8:53 PM 15.1 °F 4.2 °F 1.9 °F 56% 30.23 in 10.0 mi NW 8.1 mph - N/A   Overcast
9:53 PM 15.1 °F 2.5 °F 3.9 °F 61% 30.24 in 10.0 mi NW 10.4 mph - N/A   Overcast
10:53 PM 17.1 °F 5.8 °F 6.1 °F 62% 30.23 in 10.0 mi NNW 9.2 mph - N/A   Overcast
11:53 PM 17.1 °F 10.0 °F 6.1 °F 62% 30.23 in 10.0 mi West 4.6 mph - N/A   Overcast